BWA528 TTPP-KJFK

Flight info

Callsign BWA528
Flight time 4h 57m
Altitude 36000
Route PERRY UG449 ANADA L459 KEEKA/M078F360 L459 SAVIK/N0450F360 Y486 OWENZ Y495 CAMRN CAMRN5
Aircraft B38M/M-SDE1FGHILORVWXY/HB1

Departure

Time 2026-04-30 14:38
Airport Piarco International Airport (TTPP)

Arrival

Time 2026-04-30 19:36
Airport John F. Kennedy International Airport (KJFK)
Time Latitude Longitude Altitude Speed Heading
2026-04-30 14:13 10.60016 -61.33811 19 ft 0 kts 290°
2026-04-30 14:24 10.59996 -61.33786 19 ft 2 kts 332°
2026-04-30 14:24 10.59982 -61.33777 19 ft 2 kts 310°
2026-04-30 14:25 10.59983 -61.33747 20 ft 2 kts 219°
2026-04-30 14:25 10.60014 -61.33740 21 ft 2 kts 180°
2026-04-30 14:26 10.60022 -61.33740 20 ft 0 kts 179°
2026-04-30 14:29 10.60020 -61.33740 20 ft 1 kts 180°
2026-04-30 14:29 10.59998 -61.33740 21 ft 3 kts 180°
2026-04-30 14:30 10.59872 -61.33740 19 ft 8 kts 180°
2026-04-30 14:31 10.59748 -61.33740 19 ft 10 kts 180°
2026-04-30 14:31 10.59709 -61.33858 19 ft 11 kts 270°
2026-04-30 14:31 10.59709 -61.33939 19 ft 12 kts 270°
2026-04-30 14:32 10.59709 -61.34124 19 ft 14 kts 270°
2026-04-30 14:32 10.59708 -61.34228 19 ft 16 kts 269°
2026-04-30 14:32 10.59707 -61.34342 19 ft 17 kts 269°
2026-04-30 14:33 10.59700 -61.34463 19 ft 18 kts 262°
2026-04-30 14:33 10.59577 -61.34528 19 ft 11 kts 179°
2026-04-30 14:33 10.59495 -61.34527 19 ft 12 kts 179°
2026-04-30 14:34 10.59421 -61.34541 20 ft 9 kts 226°
2026-04-30 14:34 10.59411 -61.34574 20 ft 8 kts 268°
2026-04-30 14:34 10.59409 -61.34656 20 ft 10 kts 268°
2026-04-30 14:34 10.59385 -61.34751 21 ft 19 kts 254°
2026-04-30 14:35 10.59352 -61.34949 19 ft 15 kts 270°
2026-04-30 14:35 10.59352 -61.35062 19 ft 17 kts 270°
2026-04-30 14:35 10.59352 -61.35154 19 ft 10 kts 278°
2026-04-30 14:36 10.59397 -61.35193 19 ft 1 kts 358°
2026-04-30 14:36 10.59406 -61.35194 19 ft 2 kts 358°
2026-04-30 14:36 10.59427 -61.35194 19 ft 4 kts 358°
2026-04-30 14:36 10.59457 -61.35193 19 ft 5 kts 12°
2026-04-30 14:37 10.59504 -61.35179 19 ft 3 kts
2026-04-30 14:37 10.59526 -61.35174 19 ft 3 kts 36°
2026-04-30 14:37 10.59534 -61.35150 19 ft 4 kts 84°
2026-04-30 14:37 10.59534 -61.35100 19 ft 16 kts 90°
2026-04-30 14:38 10.59534 -61.34720 20 ft 90 kts 89°
2026-04-30 14:38 10.59538 -61.33857 19 ft 151 kts 89°
2026-04-30 14:38 10.59530 -61.32677 368 ft 174 kts 92°
2026-04-30 14:38 10.59536 -61.31429 1262 ft 172 kts 88°
2026-04-30 14:39 10.59534 -61.30197 2105 ft 186 kts 88°
2026-04-30 14:39 10.59536 -61.28728 2381 ft 231 kts 90°
2026-04-30 14:39 10.59546 -61.27109 3358 ft 233 kts 89°
2026-04-30 14:40 10.59674 -61.23552 4784 ft 266 kts 76°
2026-04-30 14:40 10.60503 -61.21916 5817 ft 266 kts 49°
2026-04-30 14:40 10.62021 -61.20758 6488 ft 282 kts 22°
2026-04-30 14:40 10.63934 -61.20423 7486 ft 281 kts 359°
2026-04-30 14:41 10.65862 -61.20812 8193 ft 294 kts 337°
2026-04-30 14:41 10.67604 -61.21914 9032 ft 296 kts 327°
2026-04-30 14:41 10.69344 -61.23083 9772 ft 303 kts 328°
2026-04-30 14:41 10.71133 -61.24264 10388 ft 313 kts 329°
2026-04-30 14:42 10.73019 -61.25514 10696 ft 332 kts 328°
2026-04-30 14:42 10.75003 -61.26829 11083 ft 347 kts 328°
2026-04-30 14:42 10.77022 -61.28171 11712 ft 351 kts 328°
2026-04-30 14:42 10.79086 -61.29542 12379 ft 355 kts 328°
2026-04-30 14:43 10.81146 -61.30911 13035 ft 359 kts 328°
2026-04-30 14:43 10.83246 -61.32306 13688 ft 362 kts 328°
2026-04-30 14:43 10.85368 -61.33717 14251 ft 366 kts 328°
2026-04-30 14:43 10.87508 -61.35140 14822 ft 369 kts 328°
2026-04-30 14:44 10.89667 -61.36575 15386 ft 372 kts 328°
2026-04-30 14:44 10.91841 -61.38020 15933 ft 375 kts 328°
2026-04-30 14:44 10.94039 -61.39482 16457 ft 378 kts 327°
2026-04-30 14:44 10.96256 -61.40957 16987 ft 381 kts 327°
2026-04-30 14:45 10.98454 -61.42419 17488 ft 384 kts 327°
2026-04-30 14:45 11.00709 -61.43920 17996 ft 387 kts 327°
2026-04-30 14:45 11.02971 -61.45426 18462 ft 389 kts 327°
2026-04-30 14:45 11.05250 -61.46941 18876 ft 392 kts 326°
2026-04-30 14:46 11.07515 -61.48450 19285 ft 394 kts 326°
2026-04-30 14:46 11.09826 -61.49989 19703 ft 397 kts 326°
2026-04-30 14:46 11.12151 -61.51537 20102 ft 399 kts 326°
2026-04-30 14:46 11.14484 -61.53091 20496 ft 402 kts 326°
2026-04-30 14:47 11.16818 -61.54646 20904 ft 404 kts 326°
2026-04-30 14:47 11.19191 -61.56228 21292 ft 407 kts 326°
2026-04-30 14:47 11.21547 -61.57798 21673 ft 409 kts 326°
2026-04-30 14:47 11.23945 -61.59397 22064 ft 412 kts 326°
2026-04-30 14:48 11.26353 -61.61003 22436 ft 415 kts 326°
2026-04-30 14:48 11.28754 -61.62604 22814 ft 417 kts 326°
2026-04-30 14:48 11.31197 -61.64234 23187 ft 419 kts 326°
2026-04-30 14:48 11.33649 -61.65869 23545 ft 422 kts 326°
2026-04-30 14:49 11.36117 -61.67517 23850 ft 424 kts 326°
2026-04-30 14:49 11.38587 -61.69165 24186 ft 425 kts 326°
2026-04-30 14:49 11.41035 -61.70800 24504 ft 426 kts 326°
2026-04-30 14:49 11.43533 -61.72468 24818 ft 428 kts 326°
2026-04-30 14:50 11.48547 -61.75817 25452 ft 431 kts 326°
2026-04-30 14:50 11.51037 -61.77481 25767 ft 433 kts 326°
2026-04-30 14:51 11.56109 -61.80871 26392 ft 436 kts 325°
2026-04-30 14:51 11.58627 -61.82555 26691 ft 437 kts 326°
2026-04-30 14:51 11.63737 -61.85973 27335 ft 439 kts 326°
2026-04-30 14:52 11.66300 -61.87688 27648 ft 440 kts 326°
2026-04-30 14:52 11.71411 -61.91109 28244 ft 442 kts 326°
2026-04-30 14:52 11.73998 -61.92841 28550 ft 443 kts 326°
2026-04-30 14:53 11.79172 -61.96307 29120 ft 446 kts 326°
2026-04-30 14:53 11.81737 -61.98025 29395 ft 447 kts 326°
2026-04-30 14:54 11.86951 -62.01520 29944 ft 449 kts 326°
2026-04-30 14:54 11.92166 -62.05017 30438 ft 450 kts 326°
2026-04-30 14:55 11.97411 -62.08535 30966 ft 450 kts 325°
2026-04-30 14:55 12.00039 -62.10299 31187 ft 451 kts 326°
2026-04-30 14:55 12.05267 -62.13809 31625 ft 453 kts 326°
2026-04-30 14:56 12.10550 -62.17358 32064 ft 454 kts 325°
2026-04-30 14:56 12.15825 -62.20903 32651 ft 452 kts 325°
2026-04-30 14:57 12.18449 -62.22666 33025 ft 449 kts 325°
2026-04-30 14:57 12.23601 -62.26131 33771 ft 442 kts 325°
2026-04-30 14:58 12.28723 -62.29578 34353 ft 438 kts 324°
2026-04-30 14:58 12.31246 -62.31275 34556 ft 438 kts 324°
2026-04-30 14:58 12.36358 -62.34717 34942 ft 438 kts 324°
2026-04-30 14:59 12.41422 -62.38128 35332 ft 437 kts 324°
2026-04-30 15:00 12.49050 -62.43269 35893 ft 437 kts 323°
2026-04-30 15:01 12.59169 -62.50095 35970 ft 435 kts 323°
2026-04-30 15:01 12.66747 -62.55210 35976 ft 435 kts 323°
2026-04-30 15:02 12.71779 -62.58610 35975 ft 435 kts 323°
2026-04-30 15:03 12.84402 -62.67144 35974 ft 435 kts 323°
2026-04-30 15:04 12.97042 -62.75701 35975 ft 435 kts 323°
2026-04-30 15:06 13.09642 -62.84240 35975 ft 435 kts 323°
2026-04-30 15:07 13.19742 -62.91093 35975 ft 435 kts 323°
2026-04-30 15:08 13.29850 -62.97959 35971 ft 435 kts 323°
2026-04-30 15:09 13.42450 -63.06527 35974 ft 435 kts 323°
2026-04-30 15:10 13.52543 -63.13398 35975 ft 435 kts 323°
2026-04-30 15:11 13.67690 -63.23723 35979 ft 436 kts 322°
2026-04-30 15:13 13.80268 -63.32308 35967 ft 436 kts 322°
2026-04-30 15:14 13.97959 -63.44404 35973 ft 436 kts 322°
2026-04-30 15:17 14.20646 -63.59949 35977 ft 435 kts 322°
2026-04-30 15:19 14.40795 -63.73786 35976 ft 435 kts 322°
2026-04-30 17:39 31.37016 -66.99974 35969 ft 427 kts 343°
2026-04-30 17:42 31.66219 -67.05901 35964 ft 426 kts 343°
2026-04-30 17:43 31.80802 -67.08875 35946 ft 426 kts 343°
2026-04-30 17:44 31.98299 -67.12456 35953 ft 426 kts 343°
2026-04-30 17:47 32.24615 -67.17868 35944 ft 428 kts 342°
2026-04-30 17:48 32.45232 -67.22131 35944 ft 432 kts 342°
2026-04-30 17:50 32.69029 -67.27076 35931 ft 435 kts 342°
2026-04-30 17:52 32.86916 -67.30810 35930 ft 435 kts 342°
2026-04-30 17:54 33.13735 -67.36438 35918 ft 435 kts 342°
2026-04-30 17:56 33.37568 -67.41469 35914 ft 435 kts 342°
2026-04-30 17:58 33.55441 -67.45260 35909 ft 435 kts 342°
2026-04-30 18:00 33.79243 -67.50334 35902 ft 434 kts 342°
2026-04-30 18:01 33.94100 -67.53515 35904 ft 434 kts 342°
2026-04-30 18:02 34.11927 -67.57406 35899 ft 429 kts 335°
2026-04-30 18:03 34.19256 -67.62744 35894 ft 408 kts 317°
2026-04-30 18:04 34.26118 -67.68827 35893 ft 407 kts 316°
2026-04-30 18:06 34.44242 -67.85236 35891 ft 407 kts 316°
2026-04-30 18:08 34.60095 -67.99669 35885 ft 407 kts 316°
2026-04-30 18:10 34.78154 -68.16197 35882 ft 407 kts 316°
2026-04-30 18:11 34.93932 -68.30713 35872 ft 406 kts 316°
2026-04-30 18:13 35.05184 -68.41109 35868 ft 406 kts 316°
2026-04-30 18:14 35.16445 -68.51550 35864 ft 407 kts 315°
2026-04-30 18:15 35.30004 -68.64172 35865 ft 410 kts 315°
2026-04-30 18:16 35.39104 -68.72673 35861 ft 413 kts 315°
2026-04-30 18:17 35.43688 -68.76965 35861 ft 414 kts 315°
2026-04-30 18:18 35.50543 -68.83395 35855 ft 415 kts 315°
2026-04-30 18:18 35.55120 -68.87696 35858 ft 415 kts 315°
2026-04-30 18:19 35.59732 -68.92037 35852 ft 416 kts 315°
2026-04-30 18:19 35.64307 -68.96349 35851 ft 417 kts 315°
2026-04-30 18:20 35.68917 -69.00700 35852 ft 417 kts 315°
2026-04-30 18:20 35.73520 -69.05052 35853 ft 417 kts 315°
2026-04-30 18:21 35.78105 -69.09393 35840 ft 417 kts 315°
2026-04-30 18:21 35.82693 -69.13743 35852 ft 417 kts 315°
2026-04-30 18:22 35.87315 -69.18132 35847 ft 417 kts 315°
2026-04-30 18:22 35.94202 -69.24683 35846 ft 418 kts 315°
2026-04-30 18:23 35.98775 -69.29042 35853 ft 418 kts 316°
2026-04-30 18:23 36.03386 -69.33442 35848 ft 418 kts 316°
2026-04-30 18:24 36.10281 -69.40034 35847 ft 418 kts 316°
2026-04-30 18:25 36.14864 -69.44424 35844 ft 418 kts 315°
2026-04-30 18:25 36.21739 -69.51032 35848 ft 417 kts 315°
2026-04-30 18:26 36.28635 -69.57669 35845 ft 417 kts 315°
2026-04-30 18:27 36.35496 -69.64287 35849 ft 417 kts 315°
2026-04-30 18:28 36.42351 -69.70915 35843 ft 417 kts 315°
2026-04-30 18:28 36.49179 -69.77532 35851 ft 416 kts 315°
2026-04-30 18:29 36.57549 -69.85664 35839 ft 416 kts 315°
2026-04-30 18:30 36.66637 -69.94520 35842 ft 415 kts 315°
2026-04-30 18:31 36.73426 -70.01153 35841 ft 414 kts 315°
2026-04-30 18:32 36.80245 -70.07831 35839 ft 414 kts 315°
2026-04-30 18:33 36.87027 -70.14488 35844 ft 414 kts 314°
2026-04-30 18:33 36.93785 -70.21137 35836 ft 414 kts 314°
2026-04-30 18:34 37.00573 -70.27832 35836 ft 414 kts 314°
2026-04-30 18:35 37.05092 -70.32296 35835 ft 414 kts 314°
2026-04-30 18:35 37.09604 -70.36762 35834 ft 415 kts 314°
2026-04-30 18:36 37.16409 -70.43510 35828 ft 416 kts 314°
2026-04-30 18:37 37.23204 -70.50263 35829 ft 416 kts 314°
2026-04-30 18:37 37.27738 -70.54779 35829 ft 417 kts 314°
2026-04-30 18:38 37.32302 -70.59331 35823 ft 418 kts 313°
2026-04-30 18:38 37.36831 -70.63856 35822 ft 418 kts 313°
2026-04-30 18:39 37.41397 -70.68425 35823 ft 419 kts 313°
2026-04-30 18:39 37.45945 -70.72983 35824 ft 419 kts 313°
2026-04-30 18:40 37.50485 -70.77541 35820 ft 419 kts 313°
2026-04-30 18:40 37.55056 -70.82137 35816 ft 420 kts 313°
2026-04-30 18:41 37.59596 -70.86708 35816 ft 420 kts 313°
2026-04-30 18:41 37.64164 -70.91314 35808 ft 420 kts 313°
2026-04-30 18:42 37.68713 -70.95908 35819 ft 420 kts 313°
2026-04-30 18:42 37.76145 -71.02058 35810 ft 429 kts 320°
2026-04-30 18:45 38.04527 -71.23136 35815 ft 431 kts 320°
2026-04-30 18:46 38.09698 -71.26995 35819 ft 432 kts 320°
2026-04-30 18:46 38.14871 -71.30863 35813 ft 432 kts 320°
2026-04-30 18:47 38.20064 -71.34751 35822 ft 433 kts 320°
2026-04-30 18:47 38.25238 -71.38632 35812 ft 433 kts 320°
2026-04-30 18:48 38.30452 -71.42549 35813 ft 434 kts 320°
2026-04-30 18:48 38.35632 -71.46447 35812 ft 435 kts 320°
2026-04-30 18:49 38.40856 -71.50385 35810 ft 435 kts 320°
2026-04-30 18:49 38.46050 -71.54307 35813 ft 436 kts 320°
2026-04-30 18:50 38.51281 -71.58264 35814 ft 437 kts 319°
2026-04-30 18:50 38.56484 -71.62206 35812 ft 437 kts 319°
2026-04-30 18:51 38.61728 -71.66186 35816 ft 437 kts 319°
2026-04-30 18:51 38.66934 -71.70143 35811 ft 432 kts 319°
2026-04-30 18:51 38.69474 -71.72072 35786 ft 416 kts 319°
2026-04-30 18:52 38.71947 -71.73959 35359 ft 412 kts 318°
2026-04-30 18:52 38.74376 -71.75814 34797 ft 412 kts 318°
2026-04-30 18:52 38.76844 -71.77699 34289 ft 410 kts 317°
2026-04-30 18:52 38.79300 -71.79574 33811 ft 408 kts 317°
2026-04-30 18:53 38.81708 -71.81416 33285 ft 406 kts 317°
2026-04-30 18:53 38.84132 -71.83268 32764 ft 403 kts 317°
2026-04-30 18:53 38.86539 -71.85110 32316 ft 400 kts 317°
2026-04-30 18:53 38.88919 -71.86933 31871 ft 396 kts 317°
2026-04-30 18:54 38.91279 -71.88744 31434 ft 393 kts 317°
2026-04-30 18:54 38.93624 -71.90543 31046 ft 389 kts 317°
2026-04-30 18:54 38.95918 -71.92302 30567 ft 387 kts 317°
2026-04-30 18:54 38.98227 -71.94080 30095 ft 384 kts 315°
2026-04-30 18:55 39.00324 -71.96114 29533 ft 372 kts 308°
2026-04-30 18:55 39.04297 -72.00260 28710 ft 365 kts 309°
2026-04-30 18:55 39.06273 -72.02325 28307 ft 361 kts 309°
2026-04-30 18:56 39.10113 -72.06343 27529 ft 354 kts 309°
2026-04-30 18:56 39.12014 -72.08335 27150 ft 350 kts 309°
2026-04-30 18:56 39.13900 -72.10312 26775 ft 347 kts 310°
2026-04-30 18:57 39.17631 -72.14229 25961 ft 344 kts 310°
2026-04-30 18:57 39.19464 -72.16155 25628 ft 341 kts 310°
2026-04-30 18:57 39.21295 -72.18081 25294 ft 338 kts 310°
2026-04-30 18:58 39.24919 -72.21896 24612 ft 334 kts 311°
2026-04-30 18:58 39.26726 -72.23801 24261 ft 337 kts 311°
2026-04-30 18:58 39.28539 -72.25714 23906 ft 342 kts 312°
2026-04-30 18:59 39.32240 -72.29620 23156 ft 346 kts 312°
2026-04-30 19:00 39.37770 -72.35468 22063 ft 340 kts 313°
2026-04-30 19:00 39.39597 -72.37403 21714 ft 337 kts 313°
2026-04-30 19:00 39.43183 -72.41204 21037 ft 331 kts 313°
2026-04-30 19:01 39.46712 -72.44951 20372 ft 325 kts 313°
2026-04-30 19:01 39.48458 -72.46806 20039 ft 322 kts 313°
2026-04-30 19:02 39.51903 -72.50471 19387 ft 317 kts 312°
2026-04-30 19:02 39.55266 -72.54053 18753 ft 312 kts 312°
2026-04-30 19:03 39.58578 -72.57585 18123 ft 307 kts 312°
2026-04-30 19:03 39.61869 -72.61098 17445 ft 302 kts 312°
2026-04-30 19:04 39.65069 -72.64519 16839 ft 295 kts 312°
2026-04-30 19:04 39.68248 -72.67923 16356 ft 300 kts 312°
2026-04-30 19:05 39.71483 -72.71389 15773 ft 302 kts 312°
2026-04-30 19:05 39.74706 -72.74847 15151 ft 297 kts 312°
2026-04-30 19:06 39.77847 -72.78221 14556 ft 291 kts 312°
2026-04-30 19:06 39.79401 -72.79891 14259 ft 288 kts 312°
2026-04-30 19:06 39.81792 -72.83708 13806 ft 264 kts 279°
2026-04-30 19:07 39.82036 -72.88423 13568 ft 261 kts 268°
2026-04-30 19:07 39.82039 -72.90762 13421 ft 260 kts 266°
2026-04-30 19:08 39.81975 -72.95479 13137 ft 260 kts 266°
2026-04-30 19:08 39.81871 -73.00147 12861 ft 259 kts 265°
2026-04-30 19:08 39.81812 -73.02498 12728 ft 259 kts 265°
2026-04-30 19:09 39.81685 -73.07195 12451 ft 259 kts 265°
2026-04-30 19:09 39.81619 -73.09542 12312 ft 259 kts 265°
2026-04-30 19:09 39.81553 -73.11886 12173 ft 259 kts 265°
2026-04-30 19:10 39.81421 -73.16539 11899 ft 259 kts 265°
2026-04-30 19:10 39.81285 -73.21205 11630 ft 259 kts 265°
2026-04-30 19:11 39.81217 -73.23547 11485 ft 259 kts 265°
2026-04-30 19:11 39.81857 -73.28136 11181 ft 265 kts 287°
2026-04-30 19:11 39.82543 -73.30368 11040 ft 265 kts 287°
2026-04-30 19:12 39.83239 -73.32599 10905 ft 265 kts 287°
2026-04-30 19:12 39.83931 -73.34794 10764 ft 265 kts 288°
2026-04-30 19:12 39.84636 -73.37014 10624 ft 265 kts 288°
2026-04-30 19:13 39.86053 -73.41462 10342 ft 265 kts 288°
2026-04-30 19:13 39.87438 -73.45805 10052 ft 256 kts 288°
2026-04-30 19:13 39.88119 -73.47943 9927 ft 254 kts 288°
2026-04-30 19:14 39.88795 -73.50065 9778 ft 254 kts 288°
2026-04-30 19:14 39.89466 -73.52173 9650 ft 254 kts 288°
2026-04-30 19:14 39.90143 -73.54301 9506 ft 254 kts 288°
2026-04-30 19:14 39.90856 -73.56416 9354 ft 255 kts 296°
2026-04-30 19:15 39.92079 -73.58071 9201 ft 264 kts 323°
2026-04-30 19:15 39.95819 -73.58828 9031 ft 283 kts 357°
2026-04-30 19:15 39.97768 -73.58697 9025 ft 285 kts 357°
2026-04-30 19:16 39.99750 -73.58561 9660 ft 286 kts 357°
2026-04-30 19:16 40.01767 -73.58416 9855 ft 291 kts 357°
2026-04-30 19:16 40.05800 -73.58136 9508 ft 286 kts 357°
2026-04-30 19:17 40.07760 -73.58003 9082 ft 285 kts 357°
2026-04-30 19:17 40.11759 -73.57773 8266 ft 287 kts 357°
2026-04-30 19:17 40.13746 -73.57677 7874 ft 284 kts 357°
2026-04-30 19:18 40.16352 -73.57563 7362 ft 280 kts 357°
2026-04-30 19:18 40.19578 -73.57441 6737 ft 276 kts 357°
2026-04-30 19:18 40.21497 -73.57378 6368 ft 273 kts 357°
2026-04-30 19:19 40.23386 -73.57324 5979 ft 271 kts 357°
2026-04-30 19:19 40.25246 -73.57278 5593 ft 268 kts 357°
2026-04-30 19:19 40.28958 -73.57206 4825 ft 264 kts 357°
2026-04-30 19:20 40.30790 -73.57179 4441 ft 261 kts 357°
2026-04-30 19:20 40.32581 -73.57161 4083 ft 259 kts 357°
2026-04-30 19:20 40.36115 -73.57091 3993 ft 254 kts
2026-04-30 19:21 40.37833 -73.56500 4001 ft 257 kts 16°
2026-04-30 19:21 40.41188 -73.54897 3993 ft 257 kts 17°
2026-04-30 19:22 40.43991 -73.53547 4000 ft 257 kts 17°
2026-04-30 19:22 40.49580 -73.50855 3993 ft 257 kts 17°
2026-04-30 19:23 40.54599 -73.48464 3982 ft 257 kts 17°
2026-04-30 19:24 40.57423 -73.47127 3994 ft 257 kts 17°
2026-04-30 19:24 40.59095 -73.46339 3994 ft 256 kts 17°
2026-04-30 19:24 40.62445 -73.44757 3986 ft 256 kts 17°
2026-04-30 19:25 40.67489 -73.42387 3989 ft 256 kts 17°
2026-04-30 19:26 40.70833 -73.40830 3997 ft 256 kts 17°
2026-04-30 19:26 40.74204 -73.39262 3995 ft 256 kts 17°
2026-04-30 19:26 40.75865 -73.38485 3987 ft 256 kts 17°
2026-04-30 19:27 40.79276 -73.37247 3979 ft 251 kts 354°
2026-04-30 19:27 40.82169 -73.39395 3421 ft 244 kts 308°
2026-04-30 19:28 40.83206 -73.41102 3224 ft 236 kts 307°
2026-04-30 19:28 40.85155 -73.44359 2760 ft 222 kts 307°
2026-04-30 19:29 40.86976 -73.47620 2260 ft 220 kts 291°
2026-04-30 19:29 40.87132 -73.49571 2241 ft 211 kts 259°
2026-04-30 19:30 40.85331 -73.54809 1999 ft 210 kts 238°
2026-04-30 19:30 40.83702 -73.58006 1986 ft 210 kts 237°
2026-04-30 19:31 40.82015 -73.61164 2004 ft 211 kts 230°
2026-04-30 19:31 40.80935 -73.62451 1996 ft 211 kts 219°
2026-04-30 19:31 40.78593 -73.64424 1982 ft 185 kts 212°
2026-04-30 19:32 40.77502 -73.65287 1994 ft 184 kts 213°
2026-04-30 19:32 40.76420 -73.66139 1993 ft 177 kts 213°
2026-04-30 19:32 40.75374 -73.66962 1976 ft 173 kts 213°
2026-04-30 19:32 40.74355 -73.67763 1986 ft 172 kts 213°
2026-04-30 19:33 40.73326 -73.68577 1989 ft 172 kts 213°
2026-04-30 19:33 40.72332 -73.69357 1801 ft 157 kts 213°
2026-04-30 19:33 40.71423 -73.70073 1660 ft 151 kts 213°
2026-04-30 19:33 40.70521 -73.70782 1451 ft 150 kts 213°
2026-04-30 19:34 40.69623 -73.71486 1247 ft 149 kts 213°
2026-04-30 19:34 40.68743 -73.72178 1033 ft 148 kts 213°
2026-04-30 19:34 40.66993 -73.73552 630 ft 144 kts 212°
2026-04-30 19:35 40.66132 -73.74226 390 ft 141 kts 211°
2026-04-30 19:35 40.65271 -73.74896 258 ft 146 kts 211°
2026-04-30 19:35 40.64415 -73.75572 49 ft 140 kts 211°
2026-04-30 19:35 40.63705 -73.76127 25 ft 85 kts 211°
2026-04-30 19:36 40.63380 -73.76381 28 ft 36 kts 212°
2026-04-30 19:36 40.63287 -73.76521 27 ft 19 kts 235°
2026-04-30 19:36 40.63250 -73.76744 23 ft 7 kts 301°
2026-04-30 19:37 40.63280 -73.76810 26 ft 10 kts 301°
2026-04-30 19:37 40.63318 -73.76895 24 ft 12 kts 301°
2026-04-30 19:37 40.63365 -73.76998 23 ft 14 kts 300°
2026-04-30 19:37 40.63419 -73.77119 23 ft 16 kts 300°
2026-04-30 19:38 40.63482 -73.77256 27 ft 18 kts 303°
2026-04-30 19:38 40.63530 -73.77360 23 ft 10 kts 301°
2026-04-30 19:38 40.63568 -73.77444 26 ft 11 kts 301°
2026-04-30 19:38 40.63611 -73.77540 23 ft 5 kts 302°
2026-04-30 19:39 40.63637 -73.77595 25 ft 9 kts 302°
2026-04-30 19:39 40.63676 -73.77662 24 ft 7 kts 317°
2026-04-30 19:39 40.63725 -73.77656 25 ft 8 kts 30°
2026-04-30 19:39 40.63763 -73.77664 23 ft 6 kts 313°
2026-04-30 19:40 40.63802 -73.77711 24 ft 9 kts 324°
2026-04-30 19:40 40.63858 -73.77760 23 ft 11 kts 326°
2026-04-30 19:40 40.63923 -73.77820 26 ft 9 kts 329°
2026-04-30 19:40 40.63983 -73.77866 24 ft 11 kts 330°
2026-04-30 19:41 40.64030 -73.77887 24 ft 7 kts
2026-04-30 19:41 40.64086 -73.77882 25 ft 9 kts 344°
2026-04-30 19:41 40.64145 -73.77924 23 ft 10 kts 330°
2026-04-30 19:41 40.64202 -73.77962 27 ft 7 kts 353°
2026-04-30 19:42 40.64235 -73.77956 23 ft 6 kts 11°
2026-04-30 19:42 40.64262 -73.77949 23 ft 0 kts